Home   Weather   Melsungen   Past weeks

Flag for Germany Past Weather in Melsungen, Hesse, Germany — Yesterday and Last 2 Weeks

Now
40 °F

Overcast.


Feels Like: 40 °F
Forecast: 37 / 46 °F
Wind: 2 mph from Southeast

Location: Fritzlar

Current Time: Dec 10, 2016 at 5:52:46 pm

Latest Report: Dec 10, 2016 at 5:00 pm


Visibility: 6 mi

Pressure: 30.23 "Hg

Humidity: 87%

Dew Point: 37 °F

Location of MelsungenLocation

Past Weather in Melsungen — Graph

°F

Melsungen Temperature Yesterday

Maximum temperature yesterday: 40 °F (at 9:00 pm)
Minimum temperature yesterday: 32 °F (at 12:00 am)
Average temperature yesterday: 37 °F

High & Low Weather Summary for the Past Weeks

 TemperatureHumidityPressure
High46 °F (Dec 2, 2:00 am)98% (Nov 26, 11:00 pm)30.64 "Hg (Nov 26, 11:00 pm)
Low15 °F (Dec 5, 8:00 am)58% (Dec 2, 2:00 pm)30.07 "Hg (Nov 27, 5:00 am)
Average31 °F89%30.38 "Hg
* Reported Nov 25 3:00 pm — Dec 10 3:00 pm, Melsungen, Weather by CustomWeather, © 2016

Note: Actual official high and low records may vary slightly from our data, if they occured in-between our weather recording intervals... More about our weather records

Advertising

Melsungen Weather History for the Previous 24 Hours

Scroll right to see more
 ConditionsComfort  
Time TempWeatherWind HumidityBarometerVisibility
3:00 pm
Sat, Dec 10
44 °FOvercast.3 mph82%30.24 "Hg7 mi
2:00 pm45 °FOvercast.5 mph79%30.24 "Hg7 mi
12:00 pm44 °FOvercast.6 mph81%30.27 "Hg6 mi
11:00 am42 °FOvercast.5 mph85%30.29 "Hg6 mi
9:00 am38 °FFog.5 mph91%30.29 "Hg4 mi
8:00 am37 °FFog.3 mph92%30.29 "Hg4 mi
6:00 am35 °FFog.2 mph96%30.30 "Hg4 mi
5:00 am32 °FFog.1 mph95%30.32 "Hg4 mi
3:00 am37 °FPassing clouds.3 mph90%30.34 "Hg6 mi
2:00 am36 °FOvercast.3 mph93%30.36 "Hg6 mi
12:00 am37 °FOvercast.3 mph91%30.38 "Hg6 mi
11:00 pm
Fri, Dec 9
39 °FPassing clouds.5 mph88%30.38 "Hg6 mi
9:00 pm40 °FOvercast.3 mph89%30.40 "Hg6 mi
8:00 pm40 °FOvercast.3 mph87%30.41 "Hg6 mi
6:00 pm39 °FPassing clouds.3 mph88%30.42 "Hg5 mi
5:00 pm40 °FFog.3 mph87%30.41 "Hg4 mi
Weather by CustomWeather, © 2016

See weather overviewHow to use our weather pages